User: anonymous   Login
Location: Gesvres
(49.0440°N, 2.8518°E)
Time: 04:09:49
(UTC+00:00)
Language:

Cosmos 2278 Rocket - Orbit

View from above orbital plane
View from above orbital plane
View from above satellite
View from above satellite

Ground track
Ground track

The orbit data is extracted from the following two-line orbital elements,

1 23088U 94023B   23147.16079978 -.00000152  00000-0 -53987-4 0  9999
2 23088  71.0020  47.3789 0002505 357.7808   2.3303 14.14768900502436
Epoch (UTC): 27 May 2023 03:51:33
Eccentricity: 0.0002505
inclination: 71.0020°
perigee height: 841 km
apogee height: 845 km
right ascension of ascending node: 47.3789°
argument of perigee: 357.7808°
revolutions per day: 14.14768900
mean anomaly at epoch: 2.3303°
orbit number at epoch: 50243

The dashed part of the orbit path shows where the satellite is in the earth's shadow,  

DLR